Location: Untermarchtal
(48.2403°N, 9.6117°E)
Time: 04:12:13
(UTC+02:00)

ISS - Pass Details

Date: 01 October 2020
Orbit: 418 x 420 km, 51.6° (Epoch: 20 October)

Event Time Altitude Azimuth Distance (km) Brightness Sun altitude
Rises 19:29:09 0° 287° (WNW) 2,368 1.9 -5.7°
Reaches altitude 10° 19:31:18 10° 293° (WNW) 1,504 0.4 -6.0°
Maximum altitude 19:34:36 51° 10° (N) 534 -3.3 -6.6°
Drops below altitude 10° 19:37:54 10° 88° (E) 1,502 -1.6 -7.1°
Enters shadow 19:38:00 - 89° (E) 1,543 -1.6 -7.2°
